Eugene, OR

5:47 AM PDT on May 25, 2017 (GMT -0700)
Mahlon Sweet

Weather History for KEUG - October, 2012

Change the Weather History Date:

Monday, October 29, 2012

  Actual Average Record
Temperature  
Mean Temperature 63 °F 49 °F  
Max Temperature 67 °F 58 °F 68 °F (1993)
Min Temperature 59 °F 40 °F 22 °F (1971)
Degree Days  
Heating Degree Days 2 16  
Month to date heating degree days 293 351  
Since 1 July heating degree days 412 539  
Cooling Degree Days 0 0  
Month to date cooling degree days 0 0  
Year to date cooling degree days 230 238  
Growing Degree Days 12 (Base 50)    
Moisture  
Dew Point 58 °F    
Average Humidity 83    
Maximum Humidity 93    
Minimum Humidity 73    
Precipitation  
Precipitation 0.13 in 0.17 in 1.91 in (1950)
Month to date precipitation 3.94 2.91  
Year to date precipitation 34.80 30.21  
Snow  
Snow 0.00 in - - ()
Month to date snowfall 0.0  
Since 1 July snowfall 0.0  
Since 1 September snowfall 0.0  
Snow Depth 0.00 in    
Sea Level Pressure  
Sea Level Pressure 30.03 in    
Wind  
Wind Speed 8 mph (SSW)    
Max Wind Speed 14 mph    
Max Gust Speed 17 mph    
Visibility 9 miles    
Events Rain    
T = Trace of Precipitation, MM = Missing Value Source: NWS Daily Summary

Daily Weather History Graph

Daily Weather History Graph

Search for Another Location

Airport or City:

Trip Planner

Search our weather history database for the weather conditions in past years. The results will help you decide how hot, cold, wet, or windy it might be!

Date:

Astronomy

Oct. 29, 2012 Rise Set
Actual Time 7:46 AM PDT 6:06 PM PDT
Civil Twilight 7:16 AM PDT 6:36 PM PDT
Nautical Twilight 6:42 AM PDT 7:10 PM PDT
Astronomical Twilight 6:08 AM PDT 7:43 PM PDT
Moon 5:59 PM PDT (10/29) 7:43 AM PDT (10/29)
Length of Visible Light 11h 19m
Length of Day
10h 19m
Full, 100% of the Moon is Illuminated
Oct 29
Full
Oct 29
Full
Nov 6
Last Quarter
Nov 13
New
Nov 20
First Quarter

Hourly Weather History & Observations

Time (PDT) Temp. Dew Point Humidity Pressure Visibility Wind Dir Wind Speed Gust Speed Precip Events Conditions
12:09 AM 60.8 °F 57.2 °F 88% 29.95 in 10.0 mi South 9.2 mph - N/A   Mostly Cloudy
12:22 AM 60.8 °F 57.2 °F 88% 29.95 in 10.0 mi South 8.1 mph - N/A   Scattered Clouds
12:54 AM 60.1 °F 57.0 °F 90% 29.96 in 10.0 mi SSW 8.1 mph - N/A   Partly Cloudy
1:24 AM 60.8 °F 57.2 °F 88% 29.97 in 10.0 mi SSW 10.4 mph - N/A   Overcast
1:52 AM 60.8 °F 57.2 °F 88% 29.96 in 6.0 mi South 11.5 mph - 0.02 in Rain Rain
1:54 AM 60.1 °F 57.0 °F 90% 29.96 in 6.0 mi South 10.4 mph - 0.03 in Rain Rain
2:54 AM 59.0 °F 57.0 °F 93% 29.97 in 10.0 mi South 11.5 mph - 0.04 in   Overcast
3:31 AM 60.8 °F 57.2 °F 88% 29.97 in 10.0 mi South 9.2 mph - N/A   Overcast
3:54 AM 60.1 °F 57.0 °F 90% 29.97 in 10.0 mi South 8.1 mph - N/A   Overcast
4:54 AM 60.1 °F 57.0 °F 90% 29.98 in 10.0 mi SSW 9.2 mph - 0.00 in Rain Light Rain
5:29 AM 59.0 °F 57.2 °F 94% 29.98 in 10.0 mi South 9.2 mph - N/A   Overcast
5:54 AM 59.0 °F 57.0 °F 93% 29.99 in 9.0 mi South 9.2 mph - 0.00 in   Overcast
6:54 AM 59.0 °F 57.9 °F 96% 30.01 in 9.0 mi South 6.9 mph - 0.05 in   Overcast
7:11 AM 59.0 °F 57.2 °F 94% 30.01 in 10.0 mi South 8.1 mph - 0.00 in Rain Light Rain
7:54 AM 59.0 °F 57.9 °F 96% 30.02 in 4.0 mi South 6.9 mph - 0.01 in Rain Light Rain
8:54 AM 60.1 °F 57.9 °F 93% 30.05 in 7.0 mi South 5.8 mph - 0.00 in   Overcast
9:22 AM 60.8 °F 59.0 °F 94% 30.07 in 7.0 mi South 5.8 mph - N/A   Overcast
9:47 AM 62.6 °F 59.0 °F 88% 30.08 in 9.0 mi South 9.2 mph - N/A   Mostly Cloudy
9:54 AM 62.1 °F 59.0 °F 90% 30.08 in 10.0 mi South 8.1 mph - N/A   Mostly Cloudy
10:54 AM 64.0 °F 60.1 °F 87% 30.09 in 10.0 mi South 10.4 mph - N/A   Mostly Cloudy
11:54 AM 64.9 °F 57.9 °F 78% 30.10 in 10.0 mi SSW 12.7 mph - N/A   Mostly Cloudy
12:54 PM 64.9 °F 57.9 °F 78% 30.09 in 10.0 mi SW 11.5 mph - N/A   Mostly Cloudy
1:54 PM 66.0 °F 57.9 °F 75% 30.09 in 10.0 mi SSW 8.1 mph - N/A   Mostly Cloudy
2:15 PM 66.2 °F 57.2 °F 73% 30.09 in 10.0 mi West 6.9 mph - N/A   Mostly Cloudy
2:54 PM 64.9 °F 57.0 °F 75% 30.08 in 10.0 mi WSW 8.1 mph - N/A   Mostly Cloudy
3:35 PM 64.4 °F 57.2 °F 77% 30.08 in 10.0 mi SW 8.1 mph - N/A   Overcast
3:54 PM 64.9 °F 57.9 °F 78% 30.07 in 10.0 mi SW 5.8 mph - N/A   Overcast
4:54 PM 64.0 °F 57.9 °F 80% 30.06 in 10.0 mi South 3.5 mph - N/A   Overcast
5:54 PM 62.1 °F 59.0 °F 90% 30.06 in 10.0 mi WSW 3.5 mph - N/A   Overcast
6:54 PM 61.0 °F 57.9 °F 90% 30.06 in 10.0 mi SW 3.5 mph - N/A   Overcast
7:54 PM 60.1 °F 57.0 °F 90% 30.04 in 10.0 mi Calm Calm - N/A   Overcast
8:54 PM 59.0 °F 57.0 °F 93% 30.03 in 10.0 mi SW 3.5 mph - N/A   Overcast
9:54 PM 59.0 °F 57.9 °F 96% 30.02 in 10.0 mi SW 5.8 mph - N/A   Overcast
10:54 PM 60.1 °F 59.0 °F 96% 30.01 in 10.0 mi South 4.6 mph - N/A   Overcast
11:04 PM 59.0 °F 57.2 °F 94% 30.01 in 10.0 mi WSW 5.8 mph - N/A   Overcast
11:35 PM 59.0 °F 57.2 °F 94% 30.00 in 9.0 mi Calm Calm - N/A   Scattered Clouds
11:54 PM 57.2 °F 57.2 °F 100% 30.00 in 8.0 mi SSE 4.6 mph - N/A   Scattered Clouds